Location: Kershaw
(34.5481°N, 80.5823°W)
Time: 03:02:33
(UTC+00:00)

Tiros 1 despin weight - Pass Details

Date: 08 October 2022
Orbit: 590 x 637 km, 48.2° (Epoch: 30 November)

Event Time Altitude Azimuth Distance (km) Brightness Sun altitude
Rises 02:07:25 0° 303° (WNW) 2,891 ? -39.1°
Reaches altitude 10° 02:09:45 10° 299° (WNW) 1,991 ? -39.5°
Enters shadow 02:10:00 11° 298° (WNW) 1,895 ? -39.6°
Maximum altitude 02:14:13 54° 222° (SW) 763 - -40.4°
Drops below altitude 10° 02:18:43 10° 145° (SE) 2,006 - -41.2°
Sets 02:21:05 0° 141° (SE) 2,915 - -41.6°
